This demonstration page uses our WeatherBlox Daily Observations layout. Learn more.

Left ArrowRight Arrow

41.12389, -100.76542

Hourly Observations for January 18, 2019

Temp ( °F °C ) Dew Point ( °F °C ) Humidity (%) Winds ( mph kmh ) Pressure ( in mb ) Visibility ( mi km ) Precip ( " mm )
12:34 am 00:34 Mostly Cloudy with Mist and Fog 29 -1.7 28 -2.2 96 96 SE 16 26 29.97 1015 1 2 0.00 0.00
12:53 am 00:53 Mostly Cloudy with Mist and Fog 29 -1.7 28 -2.2 96 96 SE 16 26 29.89 1012 1 2 0.00 0.00
1:16 am 01:16 Mostly Cloudy with Mist and Fog 29 -1.7 28 -2.2 96 96 SE 15 24 29.94 1014 1 1 0.00 0.00
1:53 am 01:53 Mostly Cloudy with Mist and Fog 29 -1.7 28 -2.2 96 96 SE 12 19 29.88 1012 1 1 0.00 0.00
2:07 am 02:07 Cloudy with Mist and Fog 29 -1.7 29 -1.7 100 100 SE 6 9 29.97 1015 1 2 0.00 0.00
2:33 am 02:33 Mostly Cloudy with Mist and Fog 29 -1.7 28 -2.2 96 96 SE 7 11 29.97 1015 1 1 0.00 0.00
2:53 am 02:53 Mostly Cloudy with Freezing Fog 29 -1.7 28 -2.2 96 96 SE 10 17 29.87 1012 1 1 0.00 0.00
3:53 am 03:53 Mostly Cloudy with Mist and Fog 29 -1.7 28 -2.2 96 96 SSE 10 17 29.85 1011 1 1 0.00 0.00
4:23 am 04:23 Mostly Cloudy with Mist and Fog 28 -2.2 28 -2.2 100 100 SSE 9 15 29.91 1013 1 2 0.00 0.00
4:53 am 04:53 Cloudy with Mist and Fog 28 -2.2 28 -2.2 100 100 SE 9 15 29.84 1011 1 2 0.00 0.00
5:04 am 05:04 Cloudy with Mist and Fog 29 -1.7 28 -2.2 96 96 SE 9 15 29.88 1012 2 2 0.00 0.00
5:30 am 05:30 Cloudy with Mist and Fog 29 -1.7 28 -2.2 96 96 SE 6 9 29.88 1012 2 3 0.00 0.00
5:53 am 05:53 Cloudy with Mist and Fog 29 -1.7 28 -2.2 96 96 SSE 8 13 29.83 1010 3 4 0.00 0.00
6:53 am 06:53 Cloudy with Mist and Fog 29 -1.7 28 -2.2 96 96 SE 7 11 29.84 1011 2 3 0.00 0.00
7:08 am 07:08 Cloudy with Mist and Fog 29 -1.7 28 -2.2 96 96 SE 8 13 29.88 1012 2 3 0.00 0.00
7:46 am 07:46 Cloudy with Mist and Fog 29 -1.7 28 -2.2 96 96 ESE 6 9 29.94 1014 3 5 0.00 0.00
7:53 am 07:53 Cloudy with Mist and Fog 29 -1.7 28 -2.2 96 96 SE 6 9 29.85 1011 3 5 0.00 0.00
8:16 am 08:16 Cloudy with Mist and Fog 29 -1.7 28 -2.2 96 96 SE 6 9 29.94 1014 4 6 0.00 0.00
8:53 am 08:53 Cloudy 29 -1.7 28 -2.2 96 96 SSE 5 7 29.86 1011 7 11 0.00 0.00
9:41 am 09:41 Cloudy with Mist and Fog 29 -1.7 28 -2.2 96 96 SE 7 11 29.94 1014 5 8 0.00 0.00
9:53 am 09:53 Cloudy with Mist and Fog 29 -1.7 28 -2.2 96 96 ESE 7 11 29.87 1012 5 8 0.00 0.00
10:53 am 10:53 Cloudy 30 -1.1 28 -2.2 92 92 N 6 9 29.93 1014 10 16 0.00 0.00
11:53 am 11:53 Cloudy 31 -0.6 29 -1.7 92 92 ENE 8 13 29.93 1013 10 16 0.00 0.03
12:22 pm 12:22 Cloudy 31 -0.6 29 -1.7 92 92 ENE 10 17 29.94 1014 10 16 0.00 0.00
12:35 pm 12:35 Cloudy 31 -0.6 28 -2.2 89 89 NE 9 15 29.94 1014 10 16 0.00 0.00
12:53 pm 12:53 Cloudy 31 -0.6 29 -1.7 92 92 NE 9 15 29.93 1013 10 16 0.00 0.00
1:25 pm 13:25 Cloudy 31 -0.6 29 -1.7 92 92 NE 15 24 29.94 1014 10 16 0.00 0.00
1:45 pm 13:45 Cloudy with Mist and Fog 30 -1.1 28 -2.2 92 92 NE 14 22 29.94 1014 6 10 0.00 0.00
1:53 pm 13:53 Cloudy with Mist and Fog 30 -1.1 28 -2.2 92 92 NE 14 22 29.93 1014 5 8 0.00 0.00
2:41 pm 14:41 Cloudy with Light Freezing Rain 30 -1.1 27 -2.8 88 88 NE 15 24 30.00 1016 3 4 0.00 0.03
2:53 pm 14:53 Cloudy with Light Freezing Rain 28 -2.2 26 -3.3 92 92 NE 22 35 29.97 1015 3 5 0.00 0.03
3:15 pm 15:15 Cloudy with Mist and Fog 24 -4.4 22 -5.6 91 91 NE 23 37 30.06 1018 4 6 0.00 0.03
3:53 pm 15:53 Cloudy with Mist and Fog 22 -5.6 20 -6.7 92 92 NNE 20 31 30.05 1018 5 8 0.00 0.03
4:53 pm 16:53 Cloudy 21 -6.1 18 -7.8 88 88 NNE 16 26 30.11 1020 10 16 0.00 0.00
5:53 pm 17:53 Cloudy 20 -6.7 17 -8.3 89 89 NNE 16 26 30.14 1021 10 16 0.00 0.03
6:40 pm 18:40 Cloudy 20 -6.7 15 -9.4 81 81 NNE 20 31 30.30 1026 10 16 0.00 0.00
6:53 pm 18:53 Cloudy 19 -7.2 16 -8.9 88 88 NNE 17 28 30.19 1023 10 16 0.00 0.00
7:23 pm 19:23 Cloudy 19 -7.2 14 -10 81 81 NNE 17 28 30.33 1027 10 16 0.00 0.00
7:53 pm 19:53 Cloudy 18 -7.8 14 -10 84 84 NNE 14 22 30.23 1024 10 16 0.00 0.00
8:50 pm 20:50 Cloudy 18 -8 12 -11 79 79 NNE 15 24 30.36 1028 10 16 0.00 0.00
8:53 pm 20:53 Cloudy 17 -8.3 12 -11.1 80 80 NNE 15 24 30.27 1025 10 16 0.00 0.00
9:00 pm 21:00 Cloudy 17 -8.3 12 -11.1 80 80 NNE 14 22 30.36 1028 10 16 0.00 0.00
9:12 pm 21:12 Cloudy 17 -8.3 12 -11.1 80 80 N 15 24 30.36 1028 10 16 0.00 0.00
9:53 pm 21:53 Cloudy 16 -8.9 10 -12.2 77 77 N 15 24 30.29 1026 10 16 0.00 0.00
10:41 pm 22:41 Cloudy 15 -9.4 10 -12.2 80 80 N 12 19 30.42 1030 10 16 0.00 0.00
10:53 pm 22:53 Cloudy 15 -9.4 10 -12.2 80 80 N 13 20 30.31 1026 10 16 0.00 0.00
11:22 pm 23:22 Cloudy 15 -9.4 10 -12.2 80 80 N 9 15 30.42 1030 10 16 0.00 0.00
11:53 pm 23:53 Cloudy 15 -9.4 10 -12.2 80 80 N 10 17 30.33 1027 10 16 0.00 0.00

Powered by AerisWeather